Weather History for Wolf Point, MT

Change the Weather History Date:

Wednesday, June 26, 2013

  Actual Average Record
Temperature  
Mean Temperature 68 °F -  
Max Temperature 81 °F 81 °F 101 °F (2012)
Min Temperature 54 °F 51 °F 36 °F (2003)
Degree Days  
Heating Degree Days 0    
Cooling Degree Days 3    
Growing Degree Days 18 (Base 50)    
Moisture  
Dew Point 53 °F    
Average Humidity 62    
Maximum Humidity 93    
Minimum Humidity 32    
Precipitation  
Precipitation T in 0.06 in 0.17 in (2005)
Month to date precipitation 3.16 2.48  
Year to date precipitation 8.72 6.18  
Sea Level Pressure  
Sea Level Pressure 29.84 in    
Wind  
Wind Speed 8 mph (West)    
Max Wind Speed 24 mph    
Max Gust Speed 30 mph    
Visibility 10 miles    
Events      
T = Trace of Precipitation, MM = Missing Value Source: NWS Daily Summary

Daily Weather History Graph

Daily Weather History Graph

Search for Another Location

Airport:

Trip Planner

Search our weather history database for the weather conditions in past years. The results will help you decide how hot, cold, wet, or windy it might be!

Date:

Astronomy

Jun. 26, 2013 Rise Set
Actual Time 5:03 AM MDT 9:06 PM MDT
Civil Twilight 4:22 AM MDT 9:47 PM MDT
Nautical Twilight 3:24 AM MDT 10:45 PM MDT
Astronomical Twilight 1:45 AM MDT 12:24 AM MDT
Moon 11:08 PM MDT (6/26) 9:17 AM MDT (6/26)
Length of Visible Light 17h 25m
Length of Day
16h 02m
Waning Gibbous, 85% of the Moon is Illuminated
Jun 26
Waning Gibbous
Jun 29
Last Quarter
Jul 8
New
Jul 15
First Quarter
Jul 22
Full

Hourly Weather History & Observations

Time (MDT) Temp. Dew Point Humidity Pressure Visibility Wind Dir Wind Speed Gust Speed Precip Events Conditions
12:53 AM 55.9 °F 54.0 °F 93% 29.75 in 10.0 mi WNW 4.6 mph - N/A   Clear
1:53 AM 55.0 °F 53.1 °F 93% 29.75 in 10.0 mi West 4.6 mph - N/A   Clear
2:53 AM 55.9 °F 54.0 °F 93% 29.75 in 5.0 mi Calm Calm - N/A   Mostly Cloudy
3:53 AM 57.0 °F 55.0 °F 93% 29.76 in 10.0 mi West 4.6 mph - N/A   Mostly Cloudy
4:53 AM 57.9 °F 55.9 °F 93% 29.77 in 10.0 mi Calm Calm - N/A   Mostly Cloudy
5:53 AM 59.0 °F 55.9 °F 90% 29.77 in 10.0 mi SSW 3.5 mph - N/A   Overcast
6:53 AM 60.1 °F 57.0 °F 90% 29.79 in 10.0 mi SW 4.6 mph - N/A   Overcast
7:53 AM 63.0 °F 59.0 °F 87% 29.80 in 10.0 mi SW 5.8 mph - 0.00 in   Overcast
8:53 AM 69.1 °F 57.9 °F 68% 29.81 in 10.0 mi WSW 9.2 mph - N/A   Clear
9:53 AM 75.0 °F 52.0 °F 44% 29.82 in 10.0 mi West 17.3 mph 24.2 mph N/A   Clear
10:53 AM 77.0 °F 51.1 °F 40% 29.83 in 10.0 mi West 20.7 mph 25.3 mph N/A   Clear
11:53 AM 78.1 °F 52.0 °F 40% 29.83 in 10.0 mi West 13.8 mph 21.9 mph N/A   Clear
12:53 PM 79.0 °F 48.0 °F 34% 29.85 in 10.0 mi West 21.9 mph 29.9 mph N/A   Clear
1:53 PM 79.0 °F 48.0 °F 34% 29.86 in 10.0 mi WNW 19.6 mph 28.8 mph N/A   Clear
2:53 PM 80.1 °F 48.0 °F 32% 29.87 in 10.0 mi West 24.2 mph 29.9 mph N/A   Clear
3:53 PM 78.1 °F 51.1 °F 39% 29.87 in 10.0 mi WNW 18.4 mph 25.3 mph N/A   Clear
4:53 PM 80.1 °F 48.0 °F 32% 29.87 in 10.0 mi WNW 20.7 mph 26.5 mph N/A   Clear
5:53 PM 80.1 °F 50.0 °F 35% 29.87 in 10.0 mi West 15.0 mph 23.0 mph N/A   Clear
6:53 PM 78.1 °F 48.0 °F 35% 29.88 in 10.0 mi West 12.7 mph - N/A   Clear
7:53 PM 75.0 °F 51.1 °F 43% 29.89 in 10.0 mi West 8.1 mph - N/A   Clear
8:53 PM 68.0 °F 52.0 °F 56% 29.90 in 10.0 mi Variable 4.6 mph - N/A   Clear
9:53 PM 66.9 °F 53.1 °F 61% 29.92 in 10.0 mi WSW 5.8 mph - N/A   Mostly Cloudy
10:32 PM 62.6 °F 53.6 °F 72% 29.95 in 10.0 mi Calm Calm - N/A   Clear
10:53 PM 62.1 °F 54.0 °F 75% 29.94 in 10.0 mi NNW 3.5 mph - N/A   Clear
11:53 PM 60.1 °F 51.1 °F 72% 29.96 in 10.0 mi WSW 3.5 mph - N/A   Clear